Year,Month,Day,Hour,Minute,Value (Times are PST for temperature in C)
2012,08,15,00,00,17.20
2012,08,15,00,01,17.20
2012,08,15,00,02,17.20
2012,08,15,00,03,17.20
2012,08,15,00,04,17.20
2012,08,15,00,05,17.20
2012,08,15,00,06,17.10
2012,08,15,00,07,17.10
2012,08,15,00,08,17.10
2012,08,15,00,09,17.10
2012,08,15,00,10,17.10
2012,08,15,00,11,17.10
2012,08,15,00,12,17.10
2012,08,15,00,13,17.00
2012,08,15,00,14,17.00
2012,08,15,00,15,17.00
2012,08,15,00,16,17.00
2012,08,15,00,17,17.00
2012,08,15,00,18,17.00
2012,08,15,00,19,16.90
2012,08,15,00,20,16.90
2012,08,15,00,21,16.90
2012,08,15,00,22,16.90
2012,08,15,00,23,16.90
2012,08,15,00,24,16.90
2012,08,15,00,25,16.90
2012,08,15,00,26,16.90
2012,08,15,00,27,16.90
2012,08,15,00,28,16.90
2012,08,15,00,29,16.80
2012,08,15,00,30,16.80
2012,08,15,00,31,16.80
2012,08,15,00,32,16.80
2012,08,15,00,33,16.80
2012,08,15,00,34,16.80
2012,08,15,00,35,16.80
2012,08,15,00,36,16.80
2012,08,15,00,37,16.80
2012,08,15,00,38,16.80
2012,08,15,00,39,16.80
2012,08,15,00,40,16.80
2012,08,15,00,41,16.70
2012,08,15,00,42,16.70
2012,08,15,00,43,16.70
2012,08,15,00,44,16.70
2012,08,15,00,45,16.70
2012,08,15,00,46,16.70
2012,08,15,00,47,16.70
2012,08,15,00,48,16.70
2012,08,15,00,49,16.70
2012,08,15,00,50,16.60
2012,08,15,00,51,16.60
2012,08,15,00,52,16.60
2012,08,15,00,53,16.60
2012,08,15,00,54,16.60
2012,08,15,00,55,16.60
2012,08,15,00,56,16.60
2012,08,15,00,57,16.60
2012,08,15,00,58,16.60
2012,08,15,00,59,16.60
2012,08,15,01,00,16.60
2012,08,15,01,01,16.60
2012,08,15,01,02,16.60
2012,08,15,01,03,16.60
2012,08,15,01,04,16.50
2012,08,15,01,05,16.50
2012,08,15,01,06,16.50
2012,08,15,01,07,16.50
2012,08,15,01,08,16.50
2012,08,15,01,09,16.50
2012,08,15,01,10,16.50
2012,08,15,01,11,16.50
2012,08,15,01,12,16.40
2012,08,15,01,13,16.40
2012,08,15,01,14,16.40
2012,08,15,01,15,16.40
2012,08,15,01,16,16.40
2012,08,15,01,17,16.40
2012,08,15,01,18,16.40
2012,08,15,01,19,16.40
2012,08,15,01,20,16.40
2012,08,15,01,21,16.40
2012,08,15,01,22,16.40
2012,08,15,01,23,16.30
2012,08,15,01,24,16.30
2012,08,15,01,25,16.30
2012,08,15,01,26,16.30
2012,08,15,01,27,16.30
2012,08,15,01,28,16.30
2012,08,15,01,29,16.30
2012,08,15,01,30,16.30
2012,08,15,01,31,16.30
2012,08,15,01,32,16.30
2012,08,15,01,33,16.20
2012,08,15,01,34,16.20
2012,08,15,01,35,16.20
2012,08,15,01,36,16.20
2012,08,15,01,37,16.20
2012,08,15,01,38,16.20
2012,08,15,01,39,16.20
2012,08,15,01,40,16.20
2012,08,15,01,41,16.20
2012,08,15,01,42,16.20
2012,08,15,01,43,16.20
2012,08,15,01,44,16.10
2012,08,15,01,45,16.10
2012,08,15,01,46,16.10
2012,08,15,01,47,16.10
2012,08,15,01,48,16.10
2012,08,15,01,49,16.10
2012,08,15,01,50,16.10
2012,08,15,01,51,16.10
2012,08,15,01,52,16.10
2012,08,15,01,53,16.10
2012,08,15,01,54,16.10
2012,08,15,01,55,16.10
2012,08,15,01,56,16.10
2012,08,15,01,57,16.10
2012,08,15,01,58,16.10
2012,08,15,01,59,16.10
2012,08,15,02,00,16.10
2012,08,15,02,01,16.00
2012,08,15,02,02,16.00
2012,08,15,02,03,16.00
2012,08,15,02,04,16.00
2012,08,15,02,05,16.00
2012,08,15,02,06,16.00
2012,08,15,02,07,16.00
2012,08,15,02,08,16.00
2012,08,15,02,09,16.00
2012,08,15,02,10,16.00
2012,08,15,02,11,16.00
2012,08,15,02,12,15.90
2012,08,15,02,13,15.90
2012,08,15,02,14,15.90
2012,08,15,02,15,15.90
2012,08,15,02,16,15.90
2012,08,15,02,17,15.90
2012,08,15,02,18,15.90
2012,08,15,02,19,15.90
2012,08,15,02,20,15.90
2012,08,15,02,21,15.90
2012,08,15,02,22,15.90
2012,08,15,02,23,15.90
2012,08,15,02,24,15.80
2012,08,15,02,25,15.80
2012,08,15,02,26,15.80
2012,08,15,02,27,15.80
2012,08,15,02,28,15.80
2012,08,15,02,29,15.80
2012,08,15,02,30,15.80
2012,08,15,02,31,15.80
2012,08,15,02,32,15.80
2012,08,15,02,33,15.80
2012,08,15,02,34,15.80
2012,08,15,02,35,15.80
2012,08,15,02,36,15.80
2012,08,15,02,37,15.80
2012,08,15,02,38,15.80
2012,08,15,02,39,15.80
2012,08,15,02,40,15.80
2012,08,15,02,41,15.80
2012,08,15,02,42,15.80
2012,08,15,02,43,15.80
2012,08,15,02,44,15.80
2012,08,15,02,45,15.70
2012,08,15,02,46,15.70
2012,08,15,02,47,15.70
2012,08,15,02,48,15.70
2012,08,15,02,49,15.70
2012,08,15,02,50,15.70
2012,08,15,02,51,15.70
2012,08,15,02,52,15.70
2012,08,15,02,53,15.70
2012,08,15,02,54,15.80
2012,08,15,02,55,15.80
2012,08,15,02,56,15.80
2012,08,15,02,57,15.80
2012,08,15,02,58,15.80
2012,08,15,02,59,15.80
2012,08,15,03,00,15.80
2012,08,15,03,01,15.80
2012,08,15,03,02,15.80
2012,08,15,03,03,15.80
2012,08,15,03,04,15.70
2012,08,15,03,05,15.70
2012,08,15,03,06,15.70
2012,08,15,03,07,15.70
2012,08,15,03,08,15.70
2012,08,15,03,09,15.70
2012,08,15,03,10,15.70
2012,08,15,03,11,15.70
2012,08,15,03,12,15.70
2012,08,15,03,13,15.70
2012,08,15,03,14,15.70
2012,08,15,03,15,15.70
2012,08,15,03,16,15.70
2012,08,15,03,17,15.70
2012,08,15,03,18,15.70
2012,08,15,03,19,15.70
2012,08,15,03,20,15.70
2012,08,15,03,21,15.60
2012,08,15,03,22,15.60
2012,08,15,03,23,15.60
2012,08,15,03,24,15.60
2012,08,15,03,25,15.60
2012,08,15,03,26,15.60
2012,08,15,03,27,15.60
2012,08,15,03,28,15.60
2012,08,15,03,29,15.60
2012,08,15,03,30,15.60
2012,08,15,03,31,15.60
2012,08,15,03,32,15.60
2012,08,15,03,33,15.60
2012,08,15,03,34,15.60
2012,08,15,03,35,15.60
2012,08,15,03,36,15.60
2012,08,15,03,37,15.50
2012,08,15,03,38,15.50
2012,08,15,03,39,15.60
2012,08,15,03,40,15.60
2012,08,15,03,41,15.60
2012,08,15,03,42,15.60
2012,08,15,03,43,15.60
2012,08,15,03,44,15.60
2012,08,15,03,45,15.50
2012,08,15,03,46,15.50
2012,08,15,03,47,15.50
2012,08,15,03,48,15.50
2012,08,15,03,49,15.50
2012,08,15,03,50,15.50
2012,08,15,03,51,15.50
2012,08,15,03,52,15.50
2012,08,15,03,53,15.50
2012,08,15,03,54,15.50
2012,08,15,03,55,15.50
2012,08,15,03,56,15.50
2012,08,15,03,57,15.50
2012,08,15,03,58,15.40
2012,08,15,03,59,15.40
2012,08,15,04,00,15.40
2012,08,15,04,01,15.40
2012,08,15,04,02,15.40
2012,08,15,04,03,15.40
2012,08,15,04,04,15.40
2012,08,15,04,05,15.40
2012,08,15,04,06,15.40
2012,08,15,04,07,15.40
2012,08,15,04,08,15.40
2012,08,15,04,09,15.40
2012,08,15,04,10,15.40
2012,08,15,04,11,15.30
2012,08,15,04,12,15.30
2012,08,15,04,13,15.30
2012,08,15,04,14,15.30
2012,08,15,04,15,15.30
2012,08,15,04,16,15.30
2012,08,15,04,17,15.30
2012,08,15,04,18,15.30
2012,08,15,04,19,15.30
2012,08,15,04,20,15.30
2012,08,15,04,21,15.30
2012,08,15,04,22,15.30
2012,08,15,04,23,15.30
2012,08,15,04,24,15.30
2012,08,15,04,25,15.30
2012,08,15,04,26,15.30
2012,08,15,04,27,15.30
2012,08,15,04,28,15.30
2012,08,15,04,29,15.30
2012,08,15,04,30,15.30
2012,08,15,04,31,15.30
2012,08,15,04,32,15.30
2012,08,15,04,33,15.30
2012,08,15,04,34,15.30
2012,08,15,04,35,15.30
2012,08,15,04,36,15.30
2012,08,15,04,37,15.30
2012,08,15,04,38,15.30
2012,08,15,04,39,15.30
2012,08,15,04,40,15.30
2012,08,15,04,41,15.30
2012,08,15,04,42,15.30
2012,08,15,04,43,15.30
2012,08,15,04,44,15.30
2012,08,15,04,45,15.30
2012,08,15,04,46,15.30
2012,08,15,04,47,15.30
2012,08,15,04,48,15.30
2012,08,15,04,49,15.30
2012,08,15,04,50,15.30
2012,08,15,04,51,15.20
2012,08,15,04,52,15.20
2012,08,15,04,53,15.20
2012,08,15,04,54,15.20
2012,08,15,04,55,15.20
2012,08,15,04,56,15.20
2012,08,15,04,57,15.20
2012,08,15,04,58,15.20
2012,08,15,04,59,15.10
2012,08,15,05,00,15.10
2012,08,15,05,01,15.10
2012,08,15,05,02,15.10
2012,08,15,05,03,15.10
2012,08,15,05,04,15.10
2012,08,15,05,05,15.10
2012,08,15,05,06,15.10
2012,08,15,05,07,15.00
2012,08,15,05,08,15.00
2012,08,15,05,09,15.00
2012,08,15,05,10,15.00
2012,08,15,05,11,15.00
2012,08,15,05,12,15.00
2012,08,15,05,13,15.00
2012,08,15,05,14,15.00
2012,08,15,05,15,15.00
2012,08,15,05,16,15.00
2012,08,15,05,17,15.00
2012,08,15,05,18,15.00
2012,08,15,05,19,15.00
2012,08,15,05,20,15.00
2012,08,15,05,21,15.00
2012,08,15,05,22,15.00
2012,08,15,05,23,15.00
2012,08,15,05,24,15.00
2012,08,15,05,25,15.00
2012,08,15,05,26,15.00
2012,08,15,05,27,15.00
2012,08,15,05,28,15.00
2012,08,15,05,29,15.00
2012,08,15,05,30,15.00
2012,08,15,05,31,15.00
2012,08,15,05,32,15.00
2012,08,15,05,33,15.00
2012,08,15,05,34,15.00
2012,08,15,05,35,15.00
2012,08,15,05,36,15.00
2012,08,15,05,37,15.00
2012,08,15,05,38,15.00
2012,08,15,05,39,15.00
2012,08,15,05,40,15.00
2012,08,15,05,41,15.00
2012,08,15,05,42,15.00
2012,08,15,05,43,15.00
2012,08,15,05,44,15.00
2012,08,15,05,45,15.00
2012,08,15,05,46,15.00
2012,08,15,05,47,15.00
2012,08,15,05,48,15.00
2012,08,15,05,49,15.00
2012,08,15,05,50,15.00
2012,08,15,05,51,15.00
2012,08,15,05,52,15.00
2012,08,15,05,53,15.00
2012,08,15,05,54,15.00
2012,08,15,05,55,15.00
2012,08,15,05,56,15.00
2012,08,15,05,57,15.00
2012,08,15,05,58,15.00
2012,08,15,05,59,14.90
2012,08,15,06,00,14.90
2012,08,15,06,01,14.90
2012,08,15,06,02,14.90
2012,08,15,06,03,14.90
2012,08,15,06,04,14.90
2012,08,15,06,05,14.90
2012,08,15,06,06,14.90
2012,08,15,06,07,14.90
2012,08,15,06,08,14.90
2012,08,15,06,09,14.90
2012,08,15,06,10,14.90
2012,08,15,06,11,14.90
2012,08,15,06,12,14.90
2012,08,15,06,13,14.90
2012,08,15,06,14,14.90
2012,08,15,06,15,14.90
2012,08,15,06,16,14.90
2012,08,15,06,17,14.90
2012,08,15,06,18,14.90
2012,08,15,06,19,14.90
2012,08,15,06,20,14.90
2012,08,15,06,21,14.90
2012,08,15,06,22,14.90
2012,08,15,06,23,14.90
2012,08,15,06,24,14.90
2012,08,15,06,25,14.90
2012,08,15,06,26,14.90
2012,08,15,06,27,14.90
2012,08,15,06,28,14.80
2012,08,15,06,29,14.80
2012,08,15,06,30,14.80
2012,08,15,06,31,14.80
2012,08,15,06,32,14.80
2012,08,15,06,33,14.80
2012,08,15,06,34,14.80
2012,08,15,06,35,14.80
2012,08,15,06,36,14.80
2012,08,15,06,37,14.80
2012,08,15,06,38,14.80
2012,08,15,06,39,14.80
2012,08,15,06,40,14.80
2012,08,15,06,41,14.80
2012,08,15,06,42,14.80
2012,08,15,06,43,14.80
2012,08,15,06,44,14.80
2012,08,15,06,45,14.80
2012,08,15,06,46,14.80
2012,08,15,06,47,14.80
2012,08,15,06,48,14.80
2012,08,15,06,49,14.80
2012,08,15,06,50,14.80
2012,08,15,06,51,14.80
2012,08,15,06,52,14.80
2012,08,15,06,53,14.80
2012,08,15,06,54,14.80
2012,08,15,06,55,14.80
2012,08,15,06,56,14.80
2012,08,15,06,57,14.80
2012,08,15,06,58,14.80
2012,08,15,06,59,14.80
2012,08,15,07,00,14.80
2012,08,15,07,01,14.80
2012,08,15,07,02,14.80
2012,08,15,07,03,14.80
2012,08,15,07,04,14.80
2012,08,15,07,05,14.80
2012,08,15,07,06,14.80
2012,08,15,07,07,14.80
2012,08,15,07,08,14.80
2012,08,15,07,09,14.80
2012,08,15,07,10,14.80
2012,08,15,07,11,14.80
2012,08,15,07,12,14.80
2012,08,15,07,13,14.80
2012,08,15,07,14,14.80
2012,08,15,07,15,14.80
2012,08,15,07,16,14.80
2012,08,15,07,17,14.80
2012,08,15,07,18,14.80
2012,08,15,07,19,14.80
2012,08,15,07,20,14.80
2012,08,15,07,21,14.80
2012,08,15,07,22,14.80
2012,08,15,07,23,14.80
2012,08,15,07,24,14.80
2012,08,15,07,25,14.80
2012,08,15,07,26,14.90
2012,08,15,07,27,14.90
2012,08,15,07,28,14.90
2012,08,15,07,29,14.90
2012,08,15,07,30,14.90
2012,08,15,07,31,14.90
2012,08,15,07,32,14.90
2012,08,15,07,33,14.90
2012,08,15,07,34,15.00
2012,08,15,07,35,15.00
2012,08,15,07,36,15.00
2012,08,15,07,37,15.00
2012,08,15,07,38,15.00
2012,08,15,07,39,15.00
2012,08,15,07,40,15.00
2012,08,15,07,41,15.00
2012,08,15,07,42,15.00
2012,08,15,07,43,15.00
2012,08,15,07,44,15.00
2012,08,15,07,45,15.00
2012,08,15,07,46,15.00
2012,08,15,07,47,15.00
2012,08,15,07,48,15.00
2012,08,15,07,49,15.00
2012,08,15,07,50,15.00
2012,08,15,07,51,15.00
2012,08,15,07,52,15.00
2012,08,15,07,53,15.00
2012,08,15,07,54,15.00
2012,08,15,07,55,15.00
2012,08,15,07,56,15.00
2012,08,15,07,57,15.00
2012,08,15,07,58,15.00
2012,08,15,07,59,15.00
2012,08,15,08,00,15.00
2012,08,15,08,01,15.00
2012,08,15,08,02,15.00
2012,08,15,08,03,15.00
2012,08,15,08,04,15.00
2012,08,15,08,05,15.10
2012,08,15,08,06,15.10
2012,08,15,08,07,15.10
2012,08,15,08,08,15.10
2012,08,15,08,09,15.20
2012,08,15,08,10,15.20
2012,08,15,08,11,15.20
2012,08,15,08,12,15.20
2012,08,15,08,13,15.20
2012,08,15,08,14,15.20
2012,08,15,08,15,15.20
2012,08,15,08,16,15.30
2012,08,15,08,17,15.30
2012,08,15,08,18,15.30
2012,08,15,08,19,15.30
2012,08,15,08,20,15.30
2012,08,15,08,21,15.30
2012,08,15,08,22,15.40
2012,08,15,08,23,15.40
2012,08,15,08,24,15.40
2012,08,15,08,25,15.40
2012,08,15,08,26,15.40
2012,08,15,08,27,15.50
2012,08,15,08,28,15.50
2012,08,15,08,29,15.50
2012,08,15,08,30,15.50
2012,08,15,08,31,15.60
2012,08,15,08,32,15.60
2012,08,15,08,33,15.60
2012,08,15,08,34,15.60
2012,08,15,08,35,15.70
2012,08,15,08,36,15.70
2012,08,15,08,37,15.70
2012,08,15,08,38,15.70
2012,08,15,08,39,15.80
2012,08,15,08,40,15.80
2012,08,15,08,41,15.80
2012,08,15,08,42,15.90
2012,08,15,08,43,15.90
2012,08,15,08,44,15.90
2012,08,15,08,45,16.00
2012,08,15,08,46,16.00
2012,08,15,08,47,16.10
2012,08,15,08,48,16.10
2012,08,15,08,49,16.20
2012,08,15,08,50,16.20
2012,08,15,08,51,16.30
2012,08,15,08,52,16.30
2012,08,15,08,53,16.40
2012,08,15,08,54,16.40
2012,08,15,08,55,16.40
2012,08,15,08,56,16.50
2012,08,15,08,57,16.50
2012,08,15,08,58,16.60
2012,08,15,08,59,16.70
2012,08,15,09,00,16.70
2012,08,15,09,01,16.90
2012,08,15,09,02,17.00
2012,08,15,09,03,17.10
2012,08,15,09,04,17.20
2012,08,15,09,05,17.30
2012,08,15,09,06,17.40
2012,08,15,09,07,17.50
2012,08,15,09,08,17.60
2012,08,15,09,09,17.80
2012,08,15,09,10,17.90
2012,08,15,09,11,18.00
2012,08,15,09,12,18.10
2012,08,15,09,13,18.20
2012,08,15,09,14,18.30
2012,08,15,09,15,18.40
2012,08,15,09,16,18.50
2012,08,15,09,17,18.60
2012,08,15,09,18,18.60
2012,08,15,09,19,18.70
2012,08,15,09,20,18.80
2012,08,15,09,21,18.90
2012,08,15,09,22,19.00
2012,08,15,09,23,19.10
2012,08,15,09,24,19.20
2012,08,15,09,25,19.30
2012,08,15,09,26,19.40
2012,08,15,09,27,19.50
2012,08,15,09,28,19.60
2012,08,15,09,29,19.60
2012,08,15,09,30,19.70
2012,08,15,09,31,19.70
2012,08,15,09,32,19.80
2012,08,15,09,33,19.80
2012,08,15,09,34,19.80
2012,08,15,09,35,19.80
2012,08,15,09,36,19.90
2012,08,15,09,37,19.90
2012,08,15,09,38,19.90
2012,08,15,09,39,19.90
2012,08,15,09,40,19.90
2012,08,15,09,41,19.90
2012,08,15,09,42,19.90
2012,08,15,09,43,20.00
2012,08,15,09,44,20.00
2012,08,15,09,45,20.00
2012,08,15,09,46,20.10
2012,08,15,09,47,20.10
2012,08,15,09,48,20.10
2012,08,15,09,49,20.20
2012,08,15,09,50,20.30
2012,08,15,09,51,20.40
2012,08,15,09,52,20.60
2012,08,15,09,53,20.70
2012,08,15,09,54,20.80
2012,08,15,09,55,21.00
2012,08,15,09,56,21.20
2012,08,15,09,57,21.30
2012,08,15,09,58,21.40
2012,08,15,09,59,21.60
2012,08,15,10,00,21.70
2012,08,15,10,01,21.80
2012,08,15,10,02,22.00
2012,08,15,10,03,22.10
2012,08,15,10,04,22.10
2012,08,15,10,05,22.20
2012,08,15,10,06,22.30
2012,08,15,10,07,22.40
2012,08,15,10,08,22.50
2012,08,15,10,09,22.60
2012,08,15,10,10,22.70
2012,08,15,10,11,22.80
2012,08,15,10,12,22.90
2012,08,15,10,13,23.00
2012,08,15,10,14,23.10
2012,08,15,10,15,23.20
2012,08,15,10,16,23.30
2012,08,15,10,17,23.30
2012,08,15,10,18,23.40
2012,08,15,10,19,23.40
2012,08,15,10,20,23.50
2012,08,15,10,21,23.50
2012,08,15,10,22,23.60
2012,08,15,10,23,23.60
2012,08,15,10,24,23.60
2012,08,15,10,25,23.60
2012,08,15,10,26,23.70
2012,08,15,10,27,23.70
2012,08,15,10,28,23.70
2012,08,15,10,29,23.70
2012,08,15,10,30,23.80
2012,08,15,10,31,23.80
2012,08,15,10,32,23.80
2012,08,15,10,33,23.90
2012,08,15,10,34,23.90
2012,08,15,10,35,23.90
2012,08,15,10,36,24.00
2012,08,15,10,37,24.00
2012,08,15,10,38,24.10
2012,08,15,10,39,24.10
2012,08,15,10,40,24.10
2012,08,15,10,41,24.10
2012,08,15,10,42,24.20
2012,08,15,10,43,24.20
2012,08,15,10,44,24.20
2012,08,15,10,45,24.30
2012,08,15,10,46,24.30
2012,08,15,10,47,24.40
2012,08,15,10,48,24.40
2012,08,15,10,49,24.40
2012,08,15,10,50,24.40
2012,08,15,10,51,24.50
2012,08,15,10,52,24.50
2012,08,15,10,53,24.60
2012,08,15,10,54,24.60
2012,08,15,10,55,24.60
2012,08,15,10,56,24.70
2012,08,15,10,57,24.70
2012,08,15,10,58,24.70
2012,08,15,10,59,24.70
2012,08,15,11,00,24.70
2012,08,15,11,01,24.70
2012,08,15,11,02,24.70
2012,08,15,11,03,24.70
2012,08,15,11,04,24.80
2012,08,15,11,05,24.80
2012,08,15,11,06,24.80
2012,08,15,11,07,24.80
2012,08,15,11,08,24.90
2012,08,15,11,09,24.90
2012,08,15,11,10,24.90
2012,08,15,11,11,25.00
2012,08,15,11,12,25.00
2012,08,15,11,13,25.10
2012,08,15,11,14,25.10
2012,08,15,11,15,25.10
2012,08,15,11,16,25.20
2012,08,15,11,17,25.20
2012,08,15,11,18,25.20
2012,08,15,11,19,25.20
2012,08,15,11,20,25.20
2012,08,15,11,21,25.20
2012,08,15,11,22,25.20
2012,08,15,11,23,25.20
2012,08,15,11,24,25.20
2012,08,15,11,25,25.20
2012,08,15,11,26,25.20
2012,08,15,11,27,25.30
2012,08,15,11,28,25.30
2012,08,15,11,29,25.30
2012,08,15,11,30,25.30
2012,08,15,11,31,25.40
2012,08,15,11,32,25.40
2012,08,15,11,33,25.40
2012,08,15,11,34,25.50
2012,08,15,11,35,25.60
2012,08,15,11,36,25.60
2012,08,15,11,37,25.70
2012,08,15,11,38,25.70
2012,08,15,11,39,25.80
2012,08,15,11,40,25.80
2012,08,15,11,41,25.80
2012,08,15,11,42,25.80
2012,08,15,11,43,25.90
2012,08,15,11,44,25.90
2012,08,15,11,45,25.90
2012,08,15,11,46,25.90
2012,08,15,11,47,25.90
2012,08,15,11,48,25.90
2012,08,15,11,49,25.80
2012,08,15,11,50,25.80
2012,08,15,11,51,25.80
2012,08,15,11,52,25.80
2012,08,15,11,53,25.80
2012,08,15,11,54,25.90
2012,08,15,11,55,25.90
2012,08,15,11,56,25.90
2012,08,15,11,57,25.90
2012,08,15,11,58,26.00
2012,08,15,11,59,26.10
2012,08,15,12,00,26.10
2012,08,15,12,01,26.10
2012,08,15,12,02,26.20
2012,08,15,12,03,26.30
2012,08,15,12,04,26.30
2012,08,15,12,05,26.40
2012,08,15,12,06,26.50
2012,08,15,12,07,26.50
2012,08,15,12,08,26.60
2012,08,15,12,09,26.60
2012,08,15,12,10,26.60
2012,08,15,12,11,26.60
2012,08,15,12,12,26.60
2012,08,15,12,13,26.60
2012,08,15,12,14,26.70
2012,08,15,12,15,26.70
2012,08,15,12,16,26.70
2012,08,15,12,17,26.70
2012,08,15,12,18,26.80
2012,08,15,12,19,26.80
2012,08,15,12,20,26.80
2012,08,15,12,21,26.80
2012,08,15,12,22,26.80
2012,08,15,12,23,26.80
2012,08,15,12,24,26.80
2012,08,15,12,25,26.80
2012,08,15,12,26,26.90
2012,08,15,12,27,26.90
2012,08,15,12,28,27.00
2012,08,15,12,29,27.00
2012,08,15,12,30,27.10
2012,08,15,12,31,27.10
2012,08,15,12,32,27.20
2012,08,15,12,33,27.20
2012,08,15,12,34,27.30
2012,08,15,12,35,27.30
2012,08,15,12,36,27.40
2012,08,15,12,37,27.40
2012,08,15,12,38,27.40
2012,08,15,12,39,27.40
2012,08,15,12,40,27.40
2012,08,15,12,41,27.40
2012,08,15,12,42,27.40
2012,08,15,12,43,27.30
2012,08,15,12,44,27.30
2012,08,15,12,45,27.30
2012,08,15,12,46,27.30
2012,08,15,12,47,27.30
2012,08,15,12,48,27.20
2012,08,15,12,49,27.30
2012,08,15,12,50,27.30
2012,08,15,12,51,27.30
2012,08,15,12,52,27.30
2012,08,15,12,53,27.30
2012,08,15,12,54,27.30
2012,08,15,12,55,27.30
2012,08,15,12,56,27.30
2012,08,15,12,57,27.30
2012,08,15,12,58,27.30
2012,08,15,12,59,27.30
2012,08,15,13,00,27.20
2012,08,15,13,01,27.10
2012,08,15,13,02,27.10
2012,08,15,13,03,27.10
2012,08,15,13,04,27.10
2012,08,15,13,05,27.10
2012,08,15,13,06,27.20
2012,08,15,13,07,27.20
2012,08,15,13,08,27.20
2012,08,15,13,09,27.20
2012,08,15,13,10,27.20
2012,08,15,13,11,27.30
2012,08,15,13,12,27.30
2012,08,15,13,13,27.40
2012,08,15,13,14,27.40
2012,08,15,13,15,27.40
2012,08,15,13,16,27.50
2012,08,15,13,17,27.60
2012,08,15,13,18,27.60
2012,08,15,13,19,27.60
2012,08,15,13,20,27.60
2012,08,15,13,21,27.60
2012,08,15,13,22,27.50
2012,08,15,13,23,27.40
2012,08,15,13,24,27.40
2012,08,15,13,25,27.40
2012,08,15,13,26,27.40
2012,08,15,13,27,27.50
2012,08,15,13,28,27.50
2012,08,15,13,29,27.60
2012,08,15,13,30,27.60
2012,08,15,13,31,27.70
2012,08,15,13,32,27.70
2012,08,15,13,33,27.80
2012,08,15,13,34,27.80
2012,08,15,13,35,27.90
2012,08,15,13,36,27.90
2012,08,15,13,37,28.00
2012,08,15,13,38,28.00
2012,08,15,13,39,28.10
2012,08,15,13,40,28.10
2012,08,15,13,41,28.20
2012,08,15,13,42,28.20
2012,08,15,13,43,28.20
2012,08,15,13,44,28.10
2012,08,15,13,45,28.10
2012,08,15,13,46,28.10
2012,08,15,13,47,28.00
2012,08,15,13,48,28.00
2012,08,15,13,49,27.90
2012,08,15,13,50,27.90
2012,08,15,13,51,27.90
2012,08,15,13,52,27.90
2012,08,15,13,53,27.90
2012,08,15,13,54,27.90
2012,08,15,13,55,28.00
2012,08,15,13,56,28.10
2012,08,15,13,57,28.10
2012,08,15,13,58,28.20
2012,08,15,13,59,28.20
2012,08,15,14,00,28.10
2012,08,15,14,01,28.10
2012,08,15,14,02,28.10
2012,08,15,14,03,28.10
2012,08,15,14,04,28.10
2012,08,15,14,05,28.10
2012,08,15,14,06,28.10
2012,08,15,14,07,28.10
2012,08,15,14,08,28.10
2012,08,15,14,09,28.00
2012,08,15,14,10,27.90
2012,08,15,14,11,27.90
2012,08,15,14,12,27.90
2012,08,15,14,13,27.90
2012,08,15,14,14,28.00
2012,08,15,14,15,28.00
2012,08,15,14,16,28.10
2012,08,15,14,17,28.10
2012,08,15,14,18,28.10
2012,08,15,14,19,28.10
2012,08,15,14,20,28.10
2012,08,15,14,21,28.10
2012,08,15,14,22,28.10
2012,08,15,14,23,28.10
2012,08,15,14,24,28.20
2012,08,15,14,25,28.20
2012,08,15,14,26,28.30
2012,08,15,14,27,28.30
2012,08,15,14,28,28.40
2012,08,15,14,29,28.50
2012,08,15,14,30,28.60
2012,08,15,14,31,28.70
2012,08,15,14,32,28.70
2012,08,15,14,33,28.70
2012,08,15,14,34,28.80
2012,08,15,14,35,28.80
2012,08,15,14,36,28.80
2012,08,15,14,37,28.90
2012,08,15,14,38,29.00
2012,08,15,14,39,29.00
2012,08,15,14,40,29.10
2012,08,15,14,41,29.10
2012,08,15,14,42,29.10
2012,08,15,14,43,29.20
2012,08,15,14,44,29.30
2012,08,15,14,45,29.40
2012,08,15,14,46,29.40
2012,08,15,14,47,29.50
2012,08,15,14,48,29.40
2012,08,15,14,49,29.40
2012,08,15,14,50,29.40
2012,08,15,14,51,29.30
2012,08,15,14,52,29.30
2012,08,15,14,53,29.30
2012,08,15,14,54,29.30
2012,08,15,14,55,29.40
2012,08,15,14,56,29.50
2012,08,15,14,57,29.40
2012,08,15,14,58,29.40
2012,08,15,14,59,29.40
2012,08,15,15,00,29.40
2012,08,15,15,01,29.50
2012,08,15,15,02,29.60
2012,08,15,15,03,29.70
2012,08,15,15,04,29.70
2012,08,15,15,05,29.80
2012,08,15,15,06,29.70
2012,08,15,15,07,29.70
2012,08,15,15,08,29.80
2012,08,15,15,09,29.80
2012,08,15,15,10,29.90
2012,08,15,15,11,30.00
2012,08,15,15,12,30.00
2012,08,15,15,13,30.10
2012,08,15,15,14,30.10
2012,08,15,15,15,30.20
2012,08,15,15,16,30.20
2012,08,15,15,17,30.30
2012,08,15,15,18,30.40
2012,08,15,15,19,30.40
2012,08,15,15,20,30.50
2012,08,15,15,21,30.50
2012,08,15,15,22,30.40
2012,08,15,15,23,30.40
2012,08,15,15,24,30.40
2012,08,15,15,25,30.40
2012,08,15,15,26,30.40
2012,08,15,15,27,30.50
2012,08,15,15,28,30.50
2012,08,15,15,29,30.60
2012,08,15,15,30,30.60
2012,08,15,15,31,30.60
2012,08,15,15,32,30.60
2012,08,15,15,33,30.60
2012,08,15,15,34,30.60
2012,08,15,15,35,30.60
2012,08,15,15,36,30.70
2012,08,15,15,37,30.70
2012,08,15,15,38,30.60
2012,08,15,15,39,30.60
2012,08,15,15,40,30.60
2012,08,15,15,41,30.70
2012,08,15,15,42,30.80
2012,08,15,15,43,30.80
2012,08,15,15,44,30.80
2012,08,15,15,45,30.80
2012,08,15,15,46,30.70
2012,08,15,15,47,30.70
2012,08,15,15,48,30.70
2012,08,15,15,49,30.70
2012,08,15,15,50,30.70
2012,08,15,15,51,30.80
2012,08,15,15,52,30.90
2012,08,15,15,53,30.90
2012,08,15,15,54,31.00
2012,08,15,15,55,31.10
2012,08,15,15,56,31.10
2012,08,15,15,57,31.10
2012,08,15,15,58,31.10
2012,08,15,15,59,31.20
2012,08,15,16,00,31.20
2012,08,15,16,01,31.20
2012,08,15,16,02,31.20
2012,08,15,16,03,31.30
2012,08,15,16,04,31.30
2012,08,15,16,05,31.30
2012,08,15,16,06,31.30
2012,08,15,16,07,31.30
2012,08,15,16,08,31.30
2012,08,15,16,09,31.30
2012,08,15,16,10,31.40
2012,08,15,16,11,31.40
2012,08,15,16,12,31.40
2012,08,15,16,13,31.40
2012,08,15,16,14,31.30
2012,08,15,16,15,31.20
2012,08,15,16,16,31.10
2012,08,15,16,17,31.10
2012,08,15,16,18,31.00
2012,08,15,16,19,30.90
2012,08,15,16,20,30.80
2012,08,15,16,21,30.80
2012,08,15,16,22,30.70
2012,08,15,16,23,30.60
2012,08,15,16,24,30.60
2012,08,15,16,25,30.60
2012,08,15,16,26,30.60
2012,08,15,16,27,30.60
2012,08,15,16,28,30.50
2012,08,15,16,29,30.40
2012,08,15,16,30,30.40
2012,08,15,16,31,30.40
2012,08,15,16,32,30.50
2012,08,15,16,33,30.60
2012,08,15,16,34,30.60
2012,08,15,16,35,30.70
2012,08,15,16,36,30.80
2012,08,15,16,37,31.00
2012,08,15,16,38,31.10
2012,08,15,16,39,31.20
2012,08,15,16,40,31.30
2012,08,15,16,41,31.40
2012,08,15,16,42,31.50
2012,08,15,16,43,31.60
2012,08,15,16,44,31.60
2012,08,15,16,45,31.70
2012,08,15,16,46,31.60
2012,08,15,16,47,31.60
2012,08,15,16,48,31.60
2012,08,15,16,49,31.50
2012,08,15,16,50,31.30
2012,08,15,16,51,31.20
2012,08,15,16,52,31.10
2012,08,15,16,53,31.00
2012,08,15,16,54,30.90
2012,08,15,16,55,30.80
2012,08,15,16,56,30.60
2012,08,15,16,57,30.50
2012,08,15,16,58,30.40
2012,08,15,16,59,30.30
2012,08,15,17,00,30.20
2012,08,15,17,01,30.10
2012,08,15,17,02,30.10
2012,08,15,17,03,30.10
2012,08,15,17,04,30.10
2012,08,15,17,05,30.10
2012,08,15,17,06,30.10
2012,08,15,17,07,30.10
2012,08,15,17,08,30.10
2012,08,15,17,09,30.20
2012,08,15,17,10,30.20
2012,08,15,17,11,30.20
2012,08,15,17,12,30.20
2012,08,15,17,13,30.20
2012,08,15,17,14,30.20
2012,08,15,17,15,30.20
2012,08,15,17,16,30.20
2012,08,15,17,17,30.20
2012,08,15,17,18,30.20
2012,08,15,17,19,30.20